Regional Weather Roundup
Issued by NWS Charleston, SC

Current Version | Previous Version | Graphics & Text | Print | Product List | Glossary On
Versions: 1 2 3 4 5 6 7 8 9 10 11 12 13 14 15 16 17 18 19 20 21 22 23 24 25 26 27 28 29 30 31 32 33 34 35 36 37 38 39 40 41 42 43 44 45 46 47 48 49 50
000 ASUS42 KCHS 300827 RWRCHS REGIONAL WEATHER ROUNDUP NATIONAL WEATHER SERVICE CHARLESTON SC 400 AM EDT TUE JUN 30 2015 NOTE: "FAIR" INDICATES FEW OR NO CLOUDS BELOW 12,000 FEET WITH NO SIGNIFICANT WEATHER AND/OR OBSTRUCTIONS TO VISIBILITY. NOT ALL STATIONS ARE QUALITY CONTROLLED BY THE NATIONAL WEATHER SERVICE. USE DATA WITH CAUTION...ESPECIALLY DEWPOINT OBSERVATIONS. SCZ027-030-031-034>040-042>050-300900- ...SOUTHEAST SOUTH CAROLINA... CITY SKY/WX TMP DP RH WIND PRES REMARKS N CHARLESTON PTCLDY 77 69 76 SW7 29.98S WATERFRONT PAR N/A 78 74 87 SW6 29.96S MOUNT PLEASANT LGT RAIN 77 73 88 SW7 29.98F JOHNS ISLAND FAIR 77 73 88 SW6 29.98F PINOPOLIS NOT AVBL MONCKS CORNER FAIR 77 66 69 SW6 29.98S SUMMERVILLE NOT AVBL BEAUFORT MCAS CLEAR 74 69 85 SW6 30.00S BEAUFORT ARPT FAIR 77 72 83 SW7 29.98F HILTON HEAD IS CLEAR 77 73 88 SW8 30.01S WALTERBORO SUNNY 70 64 83 SW5 29.99F ALLENDALE FAIR 72 66 83 CALM 29.99S ...SOUTHERN MIDLANDS AND PEE DEE... CITY SKY/WX TMP DP RH WIND PRES REMARKS GEORGETOWN NOT AVBL KINGSTREE NOT AVBL ORANGEBURG CLEAR 69 63 81 SW7 29.98S BARNWELL FAIR 72 66 83 S3 30.00S AIKEN FAIR N/A N/A N/A SW7 30.02S MANNING FAIR 73 63 68 SW6 29.97S COLUMBIA CLEAR 72 61 68 W3 29.96S SUMTER CLEAR 73 62 67 SW7 29.95S FLORENCE CLEAR 72 64 76 SW7 29.96R MYRTLE BEACH CLEAR 75 68 78 SW8 29.99S N MYRTLE BEACH CLEAR 76 69 79 W8 29.96S $$ GAZ063-065-086>088-099>101-113>116-118-119-134>141-150-300900- ...SOUTHEAST GEORGIA... CITY SKY/WX TMP DP RH WIND PRES REMARKS SAVANNAH ARPT PTCLDY 73 67 81 W3 30.00F HUNTER AAF PTCLDY 72 71 95 SW3 29.98F FORT STEWART PTCLDY 69 67 91 VRB1 29.99F STATESBORO CLEAR 73 68 87 SW3 30.00F SYLVANIA SUNNY 71 69 93 CALM 30.01S CLAXTON FAIR 68 68 100 CALM 30.01S ...CSRA...CENTRAL AND FAR SOUTHEAST GEORGIA... CITY SKY/WX TMP DP RH WIND PRES REMARKS THOMSON CLEAR 72 65 79 SW5 30.03S AUGUSTA-BUSH CLEAR 73 63 70 SW8 29.98S AUGUSTA-DANIEL CLEAR 74 62 66 SW3 29.99S SWAINSBORO FAIR 73 68 83 CALM 30.01S VIDALIA CLEAR 72 66 83 CALM 30.02S EASTMAN FAIR 73 73 100 CALM 30.04S HAZLEHURST FAIR 75 72 88 SW5 30.01S ALMA CLEAR 70 68 93 CALM 30.02F WAYCROSS CLEAR 73 72 95 SW3 30.02F JESUP FAIR 70 68 94 W3 30.02S BAXLEY FAIR 72 70 94 CALM 30.01F BRUNSWICK CLEAR 70 70 100 W3 30.02F SAINT SIMONS PTCLDY 74 72 93 W6 30.01F $$ SCZ027-028-034-036>038-045-046-048>050-GAZ119-141-300900- ...LAKE AND SUPPLEMENTAL COASTAL OBSERVATIONS... STATION/POSITION TIME TEMP WIND PRES WAVE SWELL AIR SEA DIR/SP/G HT/PER HT/PER/DIR (UTC) (F) (DEG/KT/KT) (MB) (FT/S) (FT/S/D) UPR LAKE MARION NOT AVBL WINYAH BAY 0745 75 240/ 6 1014.0S LAKE MURRAY 0700 80 250/ 6/ 8 1013.9S ACE BASIN NERRS NOT AVBL FORT PULASKI 0800 76 84 220/ 5/ 9 1016.2F SAPELO ISLAND 0800 77 240/ 8 1016.0F $$ ANZ835-935-AMZ111-154-330-350-352-354-370-450-454-472-300900- ...C-MAN AND BUOY OBSERVATIONS... STATION/POSITION TIME TEMP WIND PRES WAVE SWELL AIR SEA DIR/SP/G HT/PER HT/PER/DIR (UTC) (F) (DEG/KT/KT) (MB) (FT/S) (FT/S/D) BUOY 41004 0750 81 83 250/ 17/ 19 1014.6F 4/ 8 3/ 8 BUOY 41008 0750 80 79 250/ 8/ 10 1016.2F 2/ 8 2/120/ 8 FOLLY BEACH CMAN 0800 78 250/ 5/ 6 1015.3F CAPERS NEARSHORE 0708 81 240/ 16/ 19 1015.5F FRIPP NEARSHORE 0700 82 240/ 14/ 17 1015.6 STATION/POSITION TIME TEMP WIND PRES WAVE SWELL AIR SEA DIR/SP/G HT/PER HT/PER/DIR (UTC) (F) (DEG/KT/KT) (MB) (FT/S) (FT/S/D) 5E ST. MARYS GA 0721 78 N/A 2/ 8 FRYING PAN BUOY 0750 81 80 240/ 16/ 19 1015.0R 4/ 7 BUOY 41025 0750 79 80 240/ 10/ 10 1014.2S 4/ 8 3/130/ 8 CAPE LOOKOUT NC 0800 79 230/ 8/ 9 1014.2R BUOY 41002 0750 78 80 210/ 19/ 25 1016.5F 5/ 6 BUOY 41010 0720 82 84 240/ 14/ 16 1017.6S ST AUGUSTINE FL 0800 74 74 250/ 4/ 4 1017.9S $$

USA.gov is the U.S. government's official web portal to all federal, state and local government web resources and services.